EHI
0 0 0 0 0 0 0 0 0 0 0 0 0 0 0 0 0 0 0 0 0 0 0 0 0 0 0 0 0 0 0 0 0 0 0 0 0 0 0 0 0 0 0
0 0 0 1 1 0 0 0 0 0 0 0 0 0 0 0 0 0 0 0 0 0 0 0 0 0 0 0 0 0 0 0 0 0 0 0 0 0 0 0 0 0 0
0 0 0 1 1 0 0 0 0 0 0 0 0 0 0 0 0 0 0 0 0 0 0 0 0 0 0 0 0 0 0 0 0 0 0 0 0 0 0 0 0 0 0
0 0 0 1 1 0 0 0 0 0 0 0 0 0 0 0 0 0 0 0 0 0 0 0 0 0 0 0 0 0 0 0 0 0 0 0 0 0 0 0 0 0 0
0 0 0 0 0 0 0 0 0 0 0 0 0 0 0 0 0 0 0 0 0 0 0 0 0 0 0 0 0 0 0 0 0 0 0 0 0 0 0 0 0 0 0
0 0 0 0 0 0 0 0 0 0 0 0 0 0 0 0 0 0 0 0 0 0 0 0 0 0 0 0 0 0 0 0 0 0 0 0 0 0 0 0 0 0 0
0 0 0 0 0 0 0 0 0 0 0 0 0 0 0 0 0 0 0 0 0 0 0 0 0 0 0 0 0 0 0 0 0 0 0 0 0 0 0 0 0 0 0
0 0 0 0 0 0 0 0 0 0 0 0 0 0 0 0 0 0 0 0 0 0 0 0 0 0 0 0 0 0 0 0 0 0 0 0 0 0 0 0 0 0 0
0 0 0 0 0 0 0 0 0 0 0 0 0 0 0 0 0 0 0 0 0 0 0 0 0 0 0 0 0 0 0 0 0 0 0 0 0 0 0 0 0 0 0
0 0 0 0 0 0 0 0 0 0 0 0 0 0 0 0 0 0 0 0 0 0 0 0 0 0 0 0 0 0 0 0 0 0 0 0 0 0 0 0 0 0 0
0 0 0 0 0 0 0 0 0 0 0 0 0 0 0 0 0 0 0 0 0 0 0 0 0 0 0 0 0 0 0 0 0 0 0 0 0 0 0 0 0 0 0
0 0 0 0 0 0 0 0 0 0 0 0 0 0 0 0 0 0 0 0 0 0 0 0 0 0 0 0 0 0 0 0 0 0 0 0 0 0 0 0 0 0 0
0 0 0 0 0 0 0 0 0 0 0 0 0 0 0 0 0 0 0 0 0 0 0 0 0 0 0 0 0 0 0 0 0 0 0 0 0 0 0 0 0 0 0
0 0 0 0 0 0 0 0 0 0 0 0 0 0 0 0 0 0 0 0 0 0 0 0 0 0 0 0 0 0 0 0 0 0 0 0 0 0 0 0 0 0 0
0 0 0 0 0 0 0 0 0 0 0 0 0 0 0 0 0 0 0 0 0 0 0 0 0 0 0 0 0 0 0 0 0 0 0 0 0 0 0 0 0 0 0
0 0 0 0 0 0 0 0 0 0 0 0 0 0 0 0 0 0 0 0 0 0 0 0 0 0 0 0 0 0 0 0 0 0 0 0 0 0 0 0 0 0 0
0 0 0 0 0 0 0 0 0 0 0 0 0 0 0 0 0 0 0 0 0 0 0 0 0 0 0 0 0 0 0 0 0 0 0 0 0 0 0 0 0 0 0
0 0 0 0 0 0 0 0 0 0 0 0 0 0 0 0 0 0 0 0 0 0 0 0 0 0 0 0 0 0 0 0 0 0 0 0 0 0 0 0 0 0 0
0 0 0 0 0 0 0 0 0 0 0 0 0 0 0 0 0 0 0 0 0 0 0 0 0 0 0 0 0 0 0 0 0 0 0 0 0 0 0 0 0 0 0
0 0 0 0 0 0 0 0 0 0 0 0 0 0 0 0 0 0 0 0 0 0 0 0 0 0 0 0 0 0 0 0 0 0 0 0 0 0 0 0 0 0 0
0 0 0 0 0 0 0 0 0 0 0 0 0 0 0 0 0 0 0 0 0 0 0 0 0 0 0 0 0 0 0 0 0 0 0 0 0 0 0 0 0 0 0
0 0 0 0 0 0 0 0 0 0 0 0 0 0 0 0 0 0 0 0 0 0 0 0 0 0 0 0 0 0 0 0 0 0 0 0 0 0 0 0 0 0 0
0 0 0 0 0 0 0 0 0 0 0 0 0 0 0 0 0 0 0 0 0 0 0 0 0 0 0 0 0 0 0 0 0 0 0 0 0 0 0 0 0 0 0
0 0 0 0 0 0 0 0 0 0 0 0 0 0 0 0 0 0 0 0 0 0 0 0 0 0 0 0 0 0 0 0 0 0 0 0 0 0 0 0 0 0 0
0 0 0 0 0 0 0 0 0 0 0 0 0 0 0 0 0 0 0 0 0 0 0 0 0 0 0 0 0 0 0 0 0 0 0 0 0 0 0 0 0 0 0
0 0 0 0 0 0 0 0 0 0 0 0 0 0 0 0 0 0 0 0 0 0 0 0 0 0 0 0 0 0 0 0 0 0 0 0 0 0 0 0 0 0 0
Wind_Speed
2 2 2 1 1 1 1 1 1 1 1 1 1 1 1 1 1 1 2 2 2 2 1 1 1 1 1 1 0 1 1 2 2 3 2 2 1 1 1 1 1 2 2
2 2 2 1 1 1 1 1 0 0 1 1 1 1 1 1 1 1 2 2 2 2 2 1 2 1 1 1 1 1 1 2 2 2 2 1 1 1 1 1 1 2 1
2 2 2 1 1 1 1 0 0 0 0 1 0 1 1 2 2 2 2 2 2 3 2 2 2 1 2 2 1 2 1 1 2 2 2 1 1 0 1 0 0 0 1
3 3 2 1 1 1 1 0 0 0 0 1 1 1 2 2 2 2 2 2 2 3 3 2 2 2 3 2 2 2 2 1 1 1 1 1 1 1 1 1 0 0 0
3 2 1 1 0 0 0 0 0 1 1 1 1 2 2 2 2 2 2 2 2 3 3 3 3 3 3 2 2 2 2 2 1 1 1 0 0 0 1 1 1 1 0
3 2 1 1 1 1 0 1 0 1 1 1 1 1 2 3 4 3 2 2 2 3 4 4 3 3 3 3 2 3 4 3 3 2 1 2 2 2 1 1 2 1 1
2 1 1 1 0 0 1 1 1 1 1 1 2 1 2 3 4 3 3 2 2 2 3 3 3 2 2 2 2 1 1 2 4 4 3 3 3 3 2 2 2 2 2
2 1 1 1 0 0 1 1 2 1 1 1 2 2 2 4 5 4 3 2 2 2 2 3 3 3 2 1 1 0 1 1 2 3 3 3 3 3 3 3 3 2 0
1 1 1 1 0 0 1 2 2 1 2 2 2 1 2 4 5 3 2 1 2 3 3 3 2 2 3 1 0 1 1 2 2 2 3 2 2 2 3 2 2 2 1
1 1 1 1 1 1 2 2 1 1 2 2 2 2 2 2 4 3 3 1 1 2 3 3 3 2 3 1 1 1 2 3 2 1 1 1 1 1 1 3 3 3 2
1 0 0 1 1 2 1 1 1 1 2 2 2 3 2 3 3 3 1 0 1 1 2 3 3 4 4 3 2 2 4 3 1 1 1 1 1 1 1 1 2 3 3
0 0 0 1 1 1 0 1 1 1 1 2 2 3 3 3 3 3 3 2 1 1 2 3 3 5 5 4 3 3 3 1 0 0 0 1 1 1 1 1 1 1 2
1 1 1 2 2 1 1 1 1 1 1 2 2 3 3 3 3 5 4 4 3 2 2 4 5 5 5 3 3 2 1 0 1 1 1 2 2 2 1 1 0 0 0
0 1 1 1 2 2 1 1 2 2 2 2 3 3 4 3 3 3 2 2 2 2 2 3 4 3 3 3 3 2 1 1 2 2 2 2 1 1 1 1 1 1 0
1 1 1 1 2 2 2 2 3 4 4 4 4 4 4 4 6 6 4 3 3 3 1 1 1 1 2 2 2 2 1 1 1 1 1 1 1 1 1 1 1 1 1
0 1 1 2 2 2 2 3 5 5 7 8 7 6 6 7 8 7 7 7 6 4 1 1 2 2 2 2 2 2 2 2 2 1 1 2 2 2 2 1 0 1 2
1 1 1 2 2 2 2 2 4 6 7 7 8 8 8 8 8 7 7 6 6 4 2 3 3 3 3 3 3 3 3 3 2 2 2 2 2 2 1 2 1 1 1
1 2 2 2 2 2 3 3 3 4 4 5 6 8 8 8 7 7 6 3 3 3 3 4 4 4 4 3 3 3 3 2 2 2 2 2 2 2 2 2 2 2 2
1 2 2 2 2 2 3 3 3 4 4 4 4 5 6 6 6 6 4 3 4 4 4 4 4 4 4 4 4 4 4 3 3 3 3 3 3 2 2 3 3 3 2
2 5 4 2 2 2 3 3 3 4 4 4 4 4 3 2 3 3 4 4 4 5 5 5 5 5 4 4 4 4 4 4 4 4 4 3 3 3 3 4 3 3 3
2 4 6 3 3 3 3 4 4 4 4 5 5 6 6 4 4 5 5 5 5 5 5 5 5 5 4 4 4 4 5 4 4 4 4 4 4 3 3 3 3 4 3
2 3 3 3 4 4 4 4 4 5 5 6 5 6 8 5 4 5 5 6 6 5 5 5 5 5 5 5 5 4 5 5 5 4 4 4 4 4 3 3 3 3 4
3 4 4 4 4 6 5 4 5 5 6 6 6 5 5 5 5 5 6 6 5 5 5 5 5 5 4 5 5 5 5 5 5 5 5 4 4 4 4 4 4 5 5
3 4 5 5 5 5 5 5 5 6 6 6 6 6 6 6 6 7 6 5 5 5 5 5 6 7 8 6 4 4 5 5 4 4 6 5 5 5 4 4 4 5 5
4 5 5 5 5 5 6 6 6 6 7 7 6 6 6 6 6 6 6 5 6 6 7 6 5 6 8 9 7 6 7 8 7 5 4 4 6 6 5 5 4 4 4
5 5 5 5 5 6 6 7 7 7 7 7 7 6 6 6 7 6 6 6 6 6 6 6 7 9 9 8 9 10 10 9 9 8 5 4 5 5 6 5 6 5 6
Wind_Direction
187 179 154 183 190 177 180 214 215 225 227 235 251 243 254 285 280 275 290 295 308 303 310 300 288 276 272 279 247 197 187 168 207 274 280 284 278 238 216 200 186 185 198
170 159 164 156 130 140 187 229 175 182 242 252 244 246 263 273 273 259 270 281 277 293 287 282 286 289 277 271 254 238 221 196 188 244 284 294 270 232 196 182 190 189 191
140 130 129 120 135 163 197 226 85 98 343 331 327 288 288 285 279 270 255 259 255 261 263 247 260 270 278 270 252 248 242 220 189 201 254 263 286 284 107 105 132 119 191
123 121 118 148 185 193 190 126 229 267 328 315 303 295 289 288 294 289 272 270 273 274 276 256 246 233 243 247 242 239 225 208 184 193 240 263 274 305 111 158 181 156 197
125 129 164 175 124 119 86 282 329 342 321 299 314 316 315 306 309 312 298 288 282 284 289 276 253 241 244 231 224 219 200 188 180 183 223 259 274 254 227 208 185 164 262
134 158 178 130 80 57 321 306 336 309 315 344 334 316 321 319 321 321 334 308 295 289 285 284 269 259 271 269 253 212 189 189 193 185 203 213 242 231 220 187 169 164 248
139 155 164 152 128 311 352 9 322 290 309 328 319 324 314 311 327 335 338 336 305 300 287 287 287 281 274 264 274 263 235 207 191 183 196 223 225 220 199 195 188 187 210
126 148 165 148 181 326 12 337 312 299 293 288 295 295 302 315 327 327 337 352 328 315 302 285 282 286 283 260 242 281 275 269 240 210 203 226 230 225 204 200 190 168 158
129 209 220 185 202 302 302 286 281 295 296 290 294 288 296 315 334 350 16 14 349 331 325 318 294 280 294 292 221 250 274 283 271 213 199 213 222 225 194 153 154 156 203
218 239 234 192 198 236 253 263 278 291 286 296 300 288 278 297 332 359 31 50 359 336 331 320 312 308 318 327 203 221 260 274 276 287 273 293 287 302 194 180 181 178 183
216 192 11 231 225 232 247 274 299 309 323 320 304 299 290 286 310 320 343 26 259 306 316 311 305 315 317 305 279 232 235 249 256 237 255 289 308 311 305 218 181 183 189
148 102 318 297 275 275 233 284 303 307 314 308 305 306 296 289 288 290 284 277 272 228 268 286 296 307 309 298 280 267 259 246 207 179 211 265 264 261 255 230 204 195 206
72 300 289 306 305 276 220 241 286 287 282 288 285 283 290 293 291 292 284 275 269 251 258 277 295 306 312 304 292 287 273 167 161 204 236 248 249 249 241 226 279 215 4
80 293 295 305 307 306 277 240 235 248 259 271 274 273 279 286 282 278 274 268 268 283 283 291 303 314 316 305 312 306 270 206 190 204 233 259 273 276 254 218 214 203 125
4 312 305 294 278 287 285 264 251 244 235 243 248 247 252 266 263 260 256 253 244 247 277 323 346 339 334 331 321 309 301 269 228 222 215 247 255 258 277 257 208 175 186
4 316 304 298 293 283 288 306 298 283 282 272 266 260 255 254 265 267 268 262 254 240 212 214 234 242 254 260 276 286 283 257 239 225 217 225 233 226 232 245 212 195 203
219 270 285 288 288 283 279 280 298 311 309 295 286 278 270 272 269 264 266 264 252 220 215 221 225 230 238 243 242 246 253 251 230 214 218 220 229 232 214 212 203 202 220
263 279 289 270 269 273 273 271 268 279 298 303 298 287 281 275 269 260 254 246 260 234 227 227 230 231 231 233 237 242 242 244 233 224 222 215 212 219 211 206 204 204 215
267 270 270 273 275 276 281 282 278 277 277 284 295 300 289 284 278 266 235 222 236 241 238 238 234 232 234 232 234 235 232 228 225 221 220 215 205 208 221 213 209 201 200
262 286 294 280 277 281 282 286 285 280 278 278 278 280 290 297 284 273 248 241 242 243 240 238 235 233 231 232 232 229 231 229 222 222 221 215 207 200 212 213 205 200 204
257 277 292 289 268 266 269 271 273 274 272 270 270 272 267 263 257 254 251 246 244 242 241 239 234 231 229 231 229 228 231 234 227 221 218 213 205 204 210 213 206 199 195
248 259 261 262 264 264 266 265 265 267 271 272 275 277 270 262 257 253 249 248 246 243 237 235 235 230 225 226 225 226 233 236 230 223 221 218 212 208 204 207 206 197 192
244 257 263 265 264 270 272 267 264 265 268 270 270 268 263 256 257 255 254 253 249 246 241 235 235 240 237 228 221 218 225 231 227 218 219 218 214 214 209 206 207 200 199
244 254 260 265 266 264 264 267 266 266 266 268 269 264 259 255 257 259 256 254 248 244 239 235 236 241 237 232 228 224 228 229 224 216 216 216 213 215 210 205 211 207 200
246 253 256 259 262 263 265 266 266 266 267 267 268 266 262 258 258 259 255 250 247 244 242 239 238 237 232 230 231 231 227 221 223 221 216 213 214 213 207 203 206 208 199
250 254 255 257 258 259 260 262 263 264 264 266 265 262 261 260 259 255 255 253 247 244 241 238 239 240 234 230 230 227 222 219 216 214 211 209 210 212 205 203 202 202 194